{"data":{"norad_id":55607,"intl_designator":"2023-020AQ","name":"STARLINK-5700","alt_names":[],"object_type":"PAYLOAD","status":"ACTIVE","operator":null,"country":"US","launch_date":"2023-02-12","launch_site_code":"AFETR","launch_vehicle":null,"mission":null,"orbit_class":"UNKNOWN","rcs_meters":null,"size_class":null,"mass_kg":null,"dimensions":null,"purposes":["comms"],"wikipedia_slug":null,"has_3d_model":false,"image_url":null,"decayed_at":null,"tle_current":{"epoch":"2026-09-19T22:11:33.693792Z","epoch_age_seconds":149872,"freshness":"FRESH","line1":"1 55607U 23020AQ  26262.92469553 -.00000359  00000+0 -35186-5 0  9997","line2":"2 55607  43.0051 337.4163 0001621 288.2511  71.8164 15.27575931198743","mean_motion":15.27575931,"eccentricity":0.0001621,"inclination_deg":43.0051,"raan_deg":337.4163,"arg_perigee_deg":288.2511,"mean_anomaly_deg":71.8164,"bstar":-3.5186e-6,"rev_number":19874,"period_min":94.266999811743,"perigee_km":481.94907987531,"apogee_km":484.17348035772,"semimajor_km":6861.1982801165,"source":"CELESTRAK","updated_at":"2026-09-21T09:00:33.273303Z"}}}